Location: Góry Miechowskie
(50.3599°N, 20.1803°E)
Time: 15:40:35
(UTC+00:00)

Vanguard 1 Rocket - Pass Details

Date: 15 September 2024
Orbit: 650 x 4218 km, 34.3° (Epoch: 07 October)

Event Time Altitude Azimuth Distance (km) Brightness Sun altitude
Rises 08:12:39 0° 277° (W) 7,711 11.7 33.8°
Reaches altitude 10° 08:18:24 10° 269° (W) 7,021 11.7 34.4°
Maximum altitude 08:38:22 33° 218° (SW) 5,671 11.9 36.5°
Drops below altitude 10° 08:57:16 10° 164° (SSE) 6,574 12.9 38.2°
Sets 09:02:30 0° 155° (SSE) 7,175 12.9 38.6°
